Content
SEND FEEDBACK

Daily
Averages
Monthly
Summary
United States of America

ASHLAND, ALABAMA


Home > North America > United States > Alabama
Elevation: 1023 feet     Latitude: 33 17N     Longitude: 085 48W

WEATHER
 
SELECT A DAY
Number of Records: 207,447;   Date Range: 1/1/95 - 12/18/14
 
SHARE

PRINT THIS DATA

[ ← Previous Day ]
WEATHER ALMANAC - FEBRUARY 18, 2013
[ Next Day → ]
[ °C ]   °F
Weather ElementAverageHighLow
Temperature47 °F61 °F (2:53 pm)28 °F (3:53 am)
Dewpoint25.5 °F28.9 °F (9:53 am)21.9 °F (4:53 am)
Humidity47.6 %82 % (1:53 am)26 % (2:53 pm)
Barometer30.23 in30.36 in (7:53 am)30.03 in (11:53 pm)
Wind Speed7 mph17.3 mph (2:53 pm)
Wind Gust26.5 mph (2:53 pm)
Weather ElementAverage
Visibility10 mi
Wind DirectionESE (104.5 °)

Weather ElementTotal
Precipitation---
Heating Degree Days20.5 (Base 65)
Averaged from 22 records on February 18, 2013
WEATHER CONDITIONS BREAKOUT
WIND DIRECTION BREAKOUT
WEATHER BY HOUR - FEBRUARY 18, 2013
[ °C ]   °F
Local TimeTemperatureDewpointHumidityBarometerVisibilityWind DirectionWind SpeedGust SpeedPrecipitationEventsConditions
1:53 AM28.9 °F24.1 °F82 %30.30 in10.0 miCalmClear
2:53 AM28.9 °F24.1 °F82 %30.30 in10.0 miCalmClear
3:53 AM28.0 °F23.0 °F81 %30.31 in10.0 miCalmClear
4:53 AM28.9 °F21.9 °F75 %30.32 in10.0 miCalmClear
5:53 AM28.0 °F21.9 °F78 %30.33 in10.0 miCalmClear
6:53 AM28.9 °F23.0 °F78 %30.34 in10.0 miCalmClear
7:53 AM36.0 °F23.0 °F59 %30.36 in10.0 miNE (50°)6.9 mphClear
8:53 AM43.0 °F26.1 °F51 %30.36 in9.0 miNE (40°)3.5 mphClear
9:53 AM52.0 °F28.9 °F41 %30.35 in10.0 miSouth (180°)9.2 mphClear
10:53 AM55.0 °F27.0 °F34 %30.33 in10.0 miSSW (210°)12.7 mphClear
11:53 AM57.0 °F27.0 °F32 %30.29 in10.0 miSSW (200°)8.1 mphClear
12:53 PM59.0 °F28.0 °F31 %30.25 in10.0 miSSE (160°)10.4 mphClear
1:53 PM60.1 °F28.0 °F30 %30.22 in10.0 miSSW (210°)12.7 mphClear
2:53 PM61.0 °F26.1 °F26 %30.18 in10.0 miSE (140°)17.3 mph26.5 mphClear
3:53 PM59.0 °F26.1 °F28 %30.17 in10.0 miSouth (170°)10.4 mph19.6 mphPartly Cloudy
4:53 PM57.0 °F27.0 °F32 %30.15 in10.0 miSSE (150°)9.2 mph16.1 mphClear
5:53 PM55.9 °F27.0 °F33 %30.13 in10.0 miESE (120°)9.2 mph16.1 mphMostly Cloudy
7:53 PM54.0 °F28.0 °F37 %30.13 in10.0 miVariable3.5 mphOvercast
8:53 PM53.1 °F27.0 °F37 %30.13 in10.0 miSouth (170°)8.1 mph19.6 mphOvercast
9:53 PM53.1 °F24.1 °F32 %30.09 in10.0 miSouth (170°)11.5 mph24.2 mphOvercast
10:53 PM53.1 °F27.0 °F37 %30.06 in10.0 miSouth (190°)9.2 mph17.3 mphOvercast
11:53 PM53.1 °F23.0 °F31 %30.03 in10.0 miSE (140°)12.7 mph17.3 mphOvercast
Hourly data recorded from KANB, located miles away from Ashland, Alabama







STORIES FROM OUR PARTNERS